Time,TemperatureF,DewpointF,PressureIn,WindDirection,WindDirectionDegrees,WindSpeedMPH,WindSpeedGustMPH,Humidity,HourlyPrecipIn,Conditions,Clouds,dailyrainin,SoftwareType,DateUTC
2012-11-20 00:00:00,46.1,44.7,29.67,SW,225,2.9,4.0,95,0.13,,,0.00,WUHU216HW,2012-11-20 08:00:00,
2012-11-20 00:05:00,46.3,44.9,29.67,SW,225,4.7,4.7,95,0.13,,,0.00,WUHU216HW,2012-11-20 08:05:00,
2012-11-20 00:10:00,46.3,44.9,29.67,SW,225,1.8,4.7,95,0.13,,,0.00,WUHU216HW,2012-11-20 08:10:00,
2012-11-20 00:15:00,46.3,44.9,29.66,SW,225,1.1,4.7,95,0.12,,,0.00,WUHU216HW,2012-11-20 08:15:00,
2012-11-20 00:20:00,46.4,45.1,29.66,SSW,203,1.8,3.4,95,0.12,,,0.00,WUHU216HW,2012-11-20 08:20:00,
2012-11-20 00:25:00,46.4,45.1,29.66,WSW,248,1.8,4.3,95,0.04,,,0.00,WUHU216HW,2012-11-20 08:25:00,
2012-11-20 00:30:00,46.6,45.3,29.66,SSW,203,2.9,4.3,95,0.02,,,0.00,WUHU216HW,2012-11-20 08:30:00,
2012-11-20 00:35:00,46.6,45.3,29.66,WSW,248,3.4,3.8,95,0.01,,,0.00,WUHU216HW,2012-11-20 08:35:00,
2012-11-20 00:40:00,46.8,45.5,29.66,SSE,158,0.7,3.6,95,0.00,,,0.00,WUHU216HW,2012-11-20 08:40:00,
2012-11-20 00:45:00,46.8,45.5,29.66,SW,225,1.1,3.4,95,0.00,,,0.00,WUHU216HW,2012-11-20 08:45:00,
2012-11-20 00:50:00,46.8,45.5,29.66,SW,225,1.8,3.4,95,0.00,,,0.00,WUHU216HW,2012-11-20 08:50:00,
2012-11-20 00:55:00,46.8,45.5,29.66,WSW,248,1.6,3.4,95,0.00,,,0.00,WUHU216HW,2012-11-20 08:55:00,
2012-11-20 01:00:00,46.8,45.5,29.66,SSW,203,1.8,2.2,95,0.00,,,0.00,WUHU216HW,2012-11-20 09:00:00,
2012-11-20 01:05:00,46.8,45.5,29.66,SSW,203,2.2,2.2,95,0.00,,,0.00,WUHU216HW,2012-11-20 09:05:00,
2012-11-20 01:10:00,46.6,45.3,29.66,SW,225,1.6,2.2,95,0.00,,,0.00,WUHU216HW,2012-11-20 09:10:00,
2012-11-20 01:15:00,46.6,45.3,29.66,WSW,248,1.1,2.5,95,0.00,,,0.00,WUHU216HW,2012-11-20 09:15:00,
2012-11-20 01:20:00,46.6,45.3,29.65,WSW,248,0.7,2.5,95,0.00,,,0.00,WUHU216HW,2012-11-20 09:20:00,
2012-11-20 01:25:00,46.6,45.3,29.66,WSW,248,1.1,2.0,95,0.00,,,0.00,WUHU216HW,2012-11-20 09:25:00,
2012-11-20 01:30:00,46.4,45.1,29.66,SW,225,1.1,3.8,95,0.00,,,0.00,WUHU216HW,2012-11-20 09:30:00,
2012-11-20 01:35:00,46.4,45.1,29.66,WSW,248,1.8,3.8,95,0.00,,,0.00,WUHU216HW,2012-11-20 09:35:00,
2012-11-20 01:40:00,46.4,45.1,29.65,SW,225,0.9,2.9,95,0.00,,,0.00,WUHU216HW,2012-11-20 09:40:00,
2012-11-20 01:45:00,46.6,45.3,29.66,SW,225,0.0,4.0,95,0.00,,,0.00,WUHU216HW,2012-11-20 09:45:00,
2012-11-20 01:50:00,46.6,45.3,29.66,WSW,248,1.1,4.0,95,0.00,,,0.00,WUHU216HW,2012-11-20 09:50:00,
2012-11-20 01:55:00,46.8,45.5,29.66,SW,225,2.5,2.7,95,0.00,,,0.00,WUHU216HW,2012-11-20 09:55:00,
2012-11-20 02:00:00,47.0,45.6,29.65,WSW,248,1.6,3.4,95,0.00,,,0.00,WUHU216HW,2012-11-20 10:00:00,
2012-11-20 02:05:00,47.0,45.9,29.65,SW,225,4.3,4.3,96,0.00,,,0.00,WUHU216HW,2012-11-20 10:05:00,
2012-11-20 02:10:00,47.2,46.1,29.66,SW,225,1.6,4.3,96,0.00,,,0.00,WUHU216HW,2012-11-20 10:10:00,
2012-11-20 02:15:00,47.3,46.3,29.66,SSW,203,1.6,4.5,96,0.00,,,0.00,WUHU216HW,2012-11-20 10:15:00,
2012-11-20 02:20:00,47.3,46.3,29.66,West,270,1.6,4.5,96,0.00,,,0.00,WUHU216HW,2012-11-20 10:20:00,
2012-11-20 02:25:00,47.5,46.4,29.65,SSW,203,1.8,3.4,96,0.00,,,0.00,WUHU216HW,2012-11-20 10:25:00,
2012-11-20 02:30:00,47.5,46.4,29.65,WSW,248,2.2,4.7,96,0.00,,,0.00,WUHU216HW,2012-11-20 10:30:00,
2012-11-20 02:35:00,47.5,46.4,29.66,SSW,203,2.7,4.7,96,0.00,,,0.00,WUHU216HW,2012-11-20 10:35:00,
2012-11-20 02:40:00,47.5,46.4,29.65,WSW,248,2.5,2.7,96,0.00,,,0.00,WUHU216HW,2012-11-20 10:40:00,
2012-11-20 02:45:00,47.5,46.4,29.65,SW,225,2.5,4.0,96,0.00,,,0.00,WUHU216HW,2012-11-20 10:45:00,
2012-11-20 02:50:00,47.5,46.4,29.65,SW,225,3.4,4.0,96,0.00,,,0.00,WUHU216HW,2012-11-20 10:50:00,
2012-11-20 02:55:00,47.5,46.4,29.65,South,180,1.3,4.7,96,0.00,,,0.00,WUHU216HW,2012-11-20 10:55:00,
2012-11-20 03:00:00,47.5,46.4,29.65,SW,225,5.8,5.8,96,0.00,,,0.00,WUHU216HW,2012-11-20 11:00:00,
2012-11-20 03:05:00,47.5,46.4,29.66,West,270,3.4,5.8,96,0.01,,,0.01,WUHU216HW,2012-11-20 11:05:00,
2012-11-20 03:10:00,47.5,46.4,29.65,SSW,203,2.7,11.6,96,0.01,,,0.01,WUHU216HW,2012-11-20 11:10:00,
2012-11-20 03:15:00,47.3,46.3,29.65,SW,225,3.4,11.6,96,0.01,,,0.01,WUHU216HW,2012-11-20 11:15:00,
2012-11-20 03:20:00,47.2,46.1,29.65,SW,225,1.8,5.4,96,0.02,,,0.03,WUHU216HW,2012-11-20 11:20:00,
2012-11-20 03:25:00,47.2,46.1,29.65,WSW,248,2.7,5.1,96,0.03,,,0.03,WUHU216HW,2012-11-20 11:25:00,
2012-11-20 03:30:00,47.0,45.9,29.65,WSW,248,1.3,3.1,96,0.05,,,0.05,WUHU216HW,2012-11-20 11:30:00,
2012-11-20 03:35:00,47.0,45.6,29.64,NW,315,1.1,3.1,95,0.06,,,0.07,WUHU216HW,2012-11-20 11:35:00,
2012-11-20 03:40:00,47.0,45.6,29.65,WSW,248,2.5,3.1,95,0.06,,,0.07,WUHU216HW,2012-11-20 11:40:00,
2012-11-20 03:45:00,47.0,45.6,29.65,SSW,203,3.4,4.0,95,0.11,,,0.12,WUHU216HW,2012-11-20 11:45:00,
2012-11-20 03:50:00,46.8,45.5,29.64,SW,225,1.8,4.0,95,0.13,,,0.14,WUHU216HW,2012-11-20 11:50:00,
2012-11-20 03:55:00,46.8,45.5,29.64,SW,225,0.7,4.0,95,0.13,,,0.14,WUHU216HW,2012-11-20 11:55:00,
2012-11-20 04:00:00,46.6,45.3,29.64,SW,225,1.6,2.5,95,0.12,,,0.14,WUHU216HW,2012-11-20 12:00:00,
2012-11-20 04:05:00,46.4,45.1,29.64,SW,225,1.6,2.2,95,0.12,,,0.14,WUHU216HW,2012-11-20 12:05:00,
2012-11-20 04:10:00,46.4,45.1,29.63,West,270,2.5,2.5,95,0.12,,,0.14,WUHU216HW,2012-11-20 12:10:00,
2012-11-20 04:15:00,46.4,45.1,29.63,WSW,248,1.1,2.7,95,0.12,,,0.14,WUHU216HW,2012-11-20 12:15:00,
2012-11-20 04:20:00,46.3,44.9,29.63,WSW,248,0.9,2.7,95,0.11,,,0.14,WUHU216HW,2012-11-20 12:20:00,
2012-11-20 04:25:00,46.1,44.7,29.63,WSW,248,0.7,1.3,95,0.09,,,0.14,WUHU216HW,2012-11-20 12:25:00,
2012-11-20 04:30:00,46.1,44.7,29.63,WSW,248,1.3,1.3,95,0.07,,,0.14,WUHU216HW,2012-11-20 12:30:00,
2012-11-20 04:35:00,45.9,44.6,29.62,WSW,248,0.4,1.6,95,0.07,,,0.14,WUHU216HW,2012-11-20 12:35:00,
2012-11-20 04:40:00,45.9,44.6,29.62,WSW,248,0.7,1.6,95,0.07,,,0.14,WUHU216HW,2012-11-20 12:40:00,
2012-11-20 04:45:00,45.7,44.4,29.62,WSW,248,1.1,1.1,95,0.00,,,0.14,WUHU216HW,2012-11-20 12:45:00,
2012-11-20 04:50:00,45.7,44.4,29.62,WSW,248,1.1,1.1,95,0.00,,,0.14,WUHU216HW,2012-11-20 12:50:00,
2012-11-20 04:55:00,45.7,44.4,29.62,WSW,248,1.8,1.8,95,0.00,,,0.14,WUHU216HW,2012-11-20 12:55:00,
2012-11-20 05:00:00,45.5,44.2,29.62,WSW,248,1.3,2.0,95,0.00,,,0.14,WUHU216HW,2012-11-20 13:00:00,
2012-11-20 05:05:00,45.4,44.0,29.62,WSW,248,1.8,2.0,95,0.00,,,0.14,WUHU216HW,2012-11-20 13:05:00,
2012-11-20 05:10:00,45.2,43.8,29.62,WSW,248,1.1,1.8,95,0.00,,,0.14,WUHU216HW,2012-11-20 13:10:00,
2012-11-20 05:15:00,45.2,43.8,29.62,WSW,248,1.1,1.8,95,0.00,,,0.14,WUHU216HW,2012-11-20 13:15:00,
2012-11-20 05:20:00,45.0,43.7,29.61,WSW,248,0.9,1.8,95,0.00,,,0.14,WUHU216HW,2012-11-20 13:20:00,
2012-11-20 05:25:00,45.0,43.7,29.62,WSW,248,1.3,1.6,95,0.00,,,0.14,WUHU216HW,2012-11-20 13:25:00,
2012-11-20 05:30:00,45.0,43.7,29.62,WSW,248,1.8,2.5,95,0.00,,,0.14,WUHU216HW,2012-11-20 13:30:00,
2012-11-20 05:35:00,44.8,43.5,29.62,WSW,248,2.0,2.9,95,0.00,,,0.14,WUHU216HW,2012-11-20 13:35:00,
2012-11-20 05:40:00,44.6,43.3,29.62,WSW,248,1.1,2.9,95,0.00,,,0.14,WUHU216HW,2012-11-20 13:40:00,
2012-11-20 05:45:00,44.3,42.9,29.62,WSW,248,1.3,2.0,95,0.00,,,0.14,WUHU216HW,2012-11-20 13:45:00,
2012-11-20 05:50:00,44.3,42.9,29.62,WSW,248,1.1,1.8,95,0.00,,,0.14,WUHU216HW,2012-11-20 13:50:00,
2012-11-20 05:55:00,44.3,42.9,29.62,WSW,248,1.1,1.3,95,0.00,,,0.14,WUHU216HW,2012-11-20 13:55:00,
2012-11-20 06:00:00,44.3,42.9,29.62,WSW,248,1.3,1.6,95,0.00,,,0.14,WUHU216HW,2012-11-20 14:00:00,
2012-11-20 06:05:00,44.5,43.1,29.62,WSW,248,0.9,2.2,95,0.00,,,0.14,WUHU216HW,2012-11-20 14:05:00,
2012-11-20 06:10:00,44.5,43.1,29.62,SW,225,1.8,2.2,95,0.00,,,0.14,WUHU216HW,2012-11-20 14:10:00,
2012-11-20 06:15:00,44.6,43.3,29.62,WSW,248,1.6,1.8,95,0.00,,,0.14,WUHU216HW,2012-11-20 14:15:00,
2012-11-20 06:20:00,44.6,43.3,29.61,West,270,1.3,2.2,95,0.00,,,0.14,WUHU216HW,2012-11-20 14:20:00,
2012-11-20 06:25:00,44.6,43.3,29.61,WSW,248,1.3,2.2,95,0.00,,,0.14,WUHU216HW,2012-11-20 14:25:00,
2012-11-20 06:30:00,44.6,43.3,29.61,WSW,248,0.0,1.8,95,0.00,,,0.14,WUHU216HW,2012-11-20 14:30:00,
2012-11-20 06:35:00,44.8,43.5,29.61,WSW,248,0.2,1.3,95,0.00,,,0.14,WUHU216HW,2012-11-20 14:35:00,
2012-11-20 06:40:00,44.8,43.5,29.60,WSW,248,1.1,1.1,95,0.00,,,0.14,WUHU216HW,2012-11-20 14:40:00,
2012-11-20 06:45:00,44.8,43.5,29.60,WSW,248,1.3,1.8,95,0.00,,,0.14,WUHU216HW,2012-11-20 14:45:00,
2012-11-20 06:50:00,44.8,43.5,29.60,WSW,248,1.3,1.8,95,0.00,,,0.14,WUHU216HW,2012-11-20 14:50:00,
2012-11-20 06:55:00,44.6,43.3,29.60,West,270,1.1,2.0,95,0.00,,,0.14,WUHU216HW,2012-11-20 14:55:00,
2012-11-20 07:00:00,44.5,43.1,29.60,WSW,248,0.7,2.0,95,0.00,,,0.14,WUHU216HW,2012-11-20 15:00:00,
2012-11-20 07:05:00,44.3,42.9,29.60,WSW,248,1.3,2.0,95,0.00,,,0.14,WUHU216HW,2012-11-20 15:05:00,
2012-11-20 07:10:00,44.1,42.8,29.60,WSW,248,1.8,2.9,95,0.00,,,0.14,WUHU216HW,2012-11-20 15:10:00,
2012-11-20 07:15:00,43.9,42.6,29.59,WSW,248,2.2,2.9,95,0.00,,,0.14,WUHU216HW,2012-11-20 15:15:00,
2012-11-20 07:20:00,43.9,42.6,29.59,WSW,248,0.9,2.2,95,0.00,,,0.14,WUHU216HW,2012-11-20 15:20:00,
2012-11-20 07:25:00,43.9,42.6,29.58,WSW,248,0.7,2.2,95,0.00,,,0.14,WUHU216HW,2012-11-20 15:25:00,
2012-11-20 07:30:00,43.6,42.2,29.58,WSW,248,1.6,1.6,95,0.00,,,0.14,WUHU216HW,2012-11-20 15:30:00,
2012-11-20 07:35:00,43.6,42.2,29.58,West,270,0.9,2.2,95,0.00,,,0.14,WUHU216HW,2012-11-20 15:35:00,
2012-11-20 07:40:00,43.4,42.0,29.57,West,270,1.8,2.2,95,0.00,,,0.14,WUHU216HW,2012-11-20 15:40:00,
2012-11-20 07:45:00,43.2,41.9,29.57,WSW,248,1.8,2.5,95,0.00,,,0.14,WUHU216HW,2012-11-20 15:45:00,
2012-11-20 07:50:00,43.2,41.9,29.57,WSW,248,2.0,2.5,95,0.00,,,0.14,WUHU216HW,2012-11-20 15:50:00,
2012-11-20 07:55:00,43.0,41.7,29.56,WSW,248,1.3,2.5,95,0.00,,,0.14,WUHU216HW,2012-11-20 15:55:00,
2012-11-20 08:00:00,43.0,41.7,29.56,WSW,248,1.8,2.5,95,0.00,,,0.14,WUHU216HW,2012-11-20 16:00:00,
2012-11-20 08:05:00,43.0,41.7,29.55,West,270,2.9,2.9,95,0.00,,,0.14,WUHU216HW,2012-11-20 16:05:00,
2012-11-20 08:10:00,43.0,41.7,29.55,West,270,0.0,2.9,95,0.00,,,0.14,WUHU216HW,2012-11-20 16:10:00,
2012-11-20 08:15:00,43.0,41.7,29.55,West,270,0.4,2.5,95,0.00,,,0.14,WUHU216HW,2012-11-20 16:15:00,
2012-11-20 08:20:00,43.2,41.9,29.55,West,270,0.0,0.4,95,0.00,,,0.14,WUHU216HW,2012-11-20 16:20:00,
2012-11-20 08:25:00,43.2,41.9,29.55,West,270,0.0,0.4,95,0.00,,,0.14,WUHU216HW,2012-11-20 16:25:00,
2012-11-20 08:30:00,43.6,42.2,29.55,West,270,1.6,1.8,95,0.00,,,0.14,WUHU216HW,2012-11-20 16:30:00,
2012-11-20 08:35:00,43.6,42.2,29.54,WSW,248,2.5,2.5,95,0.00,,,0.14,WUHU216HW,2012-11-20 16:35:00,
2012-11-20 08:40:00,43.7,42.4,29.54,WSW,248,0.9,2.7,95,0.00,,,0.14,WUHU216HW,2012-11-20 16:40:00,
2012-11-20 08:45:00,43.9,42.6,29.54,SW,225,2.2,2.7,95,0.00,,,0.14,WUHU216HW,2012-11-20 16:45:00,
2012-11-20 08:50:00,43.9,42.6,29.54,WSW,248,2.2,2.5,95,0.00,,,0.14,WUHU216HW,2012-11-20 16:50:00,
2012-11-20 08:55:00,44.1,42.8,29.55,WSW,248,1.8,3.1,95,0.00,,,0.14,WUHU216HW,2012-11-20 16:55:00,
2012-11-20 09:00:00,44.3,42.9,29.54,WSW,248,0.0,3.1,95,0.00,,,0.14,WUHU216HW,2012-11-20 17:00:00,
2012-11-20 09:05:00,44.5,43.1,29.54,NE,45,1.6,2.2,95,0.00,,,0.14,WUHU216HW,2012-11-20 17:05:00,
2012-11-20 09:10:00,44.6,43.3,29.53,NE,45,0.0,1.6,95,0.00,,,0.14,WUHU216HW,2012-11-20 17:10:00,
2012-11-20 09:15:00,45.0,43.7,29.53,NE,45,0.0,1.6,95,0.00,,,0.14,WUHU216HW,2012-11-20 17:15:00,
2012-11-20 09:20:00,45.0,43.7,29.53,NE,45,0.0,0.0,95,0.00,,,0.14,WUHU216HW,2012-11-20 17:20:00,
2012-11-20 09:25:00,45.4,44.0,29.53,NE,45,0.0,0.0,95,0.00,,,0.14,WUHU216HW,2012-11-20 17:25:00,
2012-11-20 09:30:00,45.5,44.2,29.52,NE,45,1.1,1.3,95,0.00,,,0.14,WUHU216HW,2012-11-20 17:30:00,
2012-11-20 09:35:00,45.7,44.4,29.52,NE,45,0.9,1.3,95,0.00,,,0.14,WUHU216HW,2012-11-20 17:35:00,
2012-11-20 09:40:00,45.7,44.4,29.52,WNW,293,0.9,1.3,95,0.00,,,0.14,WUHU216HW,2012-11-20 17:40:00,
2012-11-20 09:45:00,45.7,44.4,29.52,West,270,1.1,1.3,95,0.00,,,0.14,WUHU216HW,2012-11-20 17:45:00,
2012-11-20 09:50:00,45.9,44.6,29.51,West,270,1.1,1.3,95,0.00,,,0.14,WUHU216HW,2012-11-20 17:50:00,
2012-11-20 09:55:00,45.9,44.6,29.51,West,270,0.7,1.6,95,0.00,,,0.14,WUHU216HW,2012-11-20 17:55:00,
2012-11-20 10:00:00,45.9,44.6,29.51,WSW,248,0.9,1.6,95,0.00,,,0.14,WUHU216HW,2012-11-20 18:00:00,
2012-11-20 10:05:00,45.9,44.6,29.51,WSW,248,0.0,1.1,95,0.00,,,0.14,WUHU216HW,2012-11-20 18:05:00,
2012-11-20 10:10:00,46.1,44.7,29.51,ESE,113,1.3,1.8,95,0.01,,,0.15,WUHU216HW,2012-11-20 18:10:00,
2012-11-20 10:15:00,46.1,44.7,29.51,NE,45,1.3,2.0,95,0.01,,,0.15,WUHU216HW,2012-11-20 18:15:00,
2012-11-20 10:20:00,46.1,44.7,29.51,ENE,68,0.4,2.0,95,0.02,,,0.16,WUHU216HW,2012-11-20 18:20:00,
2012-11-20 10:25:00,46.1,44.7,29.52,ENE,68,0.4,1.8,95,0.03,,,0.17,WUHU216HW,2012-11-20 18:25:00,
2012-11-20 10:30:00,46.1,44.7,29.52,East,90,0.0,1.6,95,0.05,,,0.19,WUHU216HW,2012-11-20 18:30:00,
2012-11-20 10:35:00,46.1,44.7,29.53,SSW,203,1.1,1.6,95,0.06,,,0.20,WUHU216HW,2012-11-20 18:35:00,
2012-11-20 10:40:00,46.3,44.9,29.53,WSW,248,1.8,1.8,95,0.08,,,0.21,WUHU216HW,2012-11-20 18:40:00,
2012-11-20 10:45:00,46.1,44.7,29.54,SW,225,1.8,2.0,95,0.09,,,0.23,WUHU216HW,2012-11-20 18:45:00,
2012-11-20 10:50:00,46.1,44.7,29.54,SW,225,0.7,3.6,95,0.11,,,0.25,WUHU216HW,2012-11-20 18:50:00,
2012-11-20 10:55:00,46.1,44.7,29.54,SW,225,0.4,3.6,95,0.12,,,0.26,WUHU216HW,2012-11-20 18:55:00,
2012-11-20 11:00:00,46.1,44.7,29.53,NNE,23,0.4,1.1,95,0.14,,,0.28,WUHU216HW,2012-11-20 19:00:00,
2012-11-20 11:05:00,46.1,44.7,29.53,NNE,23,0.0,0.9,95,0.15,,,0.30,WUHU216HW,2012-11-20 19:05:00,
2012-11-20 11:10:00,46.3,44.9,29.52,WNW,293,0.4,2.5,95,0.16,,,0.31,WUHU216HW,2012-11-20 19:10:00,
2012-11-20 11:15:00,46.3,44.9,29.52,West,270,1.1,2.5,95,0.16,,,0.31,WUHU216HW,2012-11-20 19:15:00,
2012-11-20 11:20:00,46.4,45.1,29.53,West,270,0.0,1.8,95,0.14,,,0.31,WUHU216HW,2012-11-20 19:20:00,
2012-11-20 11:25:00,46.4,45.1,29.52,ENE,68,1.3,1.3,95,0.13,,,0.31,WUHU216HW,2012-11-20 19:25:00,
2012-11-20 11:30:00,46.4,45.1,29.52,NE,45,0.2,1.8,95,0.12,,,0.31,WUHU216HW,2012-11-20 19:30:00,
2012-11-20 11:35:00,46.4,45.1,29.52,ESE,113,0.4,1.8,95,0.11,,,0.31,WUHU216HW,2012-11-20 19:35:00,
2012-11-20 11:40:00,46.6,45.3,29.52,SW,225,1.6,2.5,95,0.08,,,0.31,WUHU216HW,2012-11-20 19:40:00,
2012-11-20 11:45:00,46.6,45.3,29.52,SSW,203,0.2,2.5,95,0.08,,,0.32,WUHU216HW,2012-11-20 19:45:00,
2012-11-20 11:50:00,46.6,45.3,29.52,ENE,68,0.9,1.6,95,0.06,,,0.32,WUHU216HW,2012-11-20 19:50:00,
2012-11-20 11:55:00,46.8,45.5,29.52,NE,45,1.8,2.0,95,0.05,,,0.32,WUHU216HW,2012-11-20 19:55:00,
2012-11-20 12:00:00,46.8,45.5,29.51,NE,45,0.9,2.0,95,0.03,,,0.32,WUHU216HW,2012-11-20 20:00:00,
2012-11-20 12:05:00,46.8,45.5,29.52,ENE,68,0.4,2.0,95,0.02,,,0.32,WUHU216HW,2012-11-20 20:05:00,
2012-11-20 12:10:00,47.0,45.6,29.52,ENE,68,1.8,1.8,95,0.01,,,0.32,WUHU216HW,2012-11-20 20:10:00,
2012-11-20 12:15:00,47.3,46.3,29.52,ENE,68,2.5,2.5,96,0.01,,,0.32,WUHU216HW,2012-11-20 20:15:00,
2012-11-20 12:20:00,47.5,46.4,29.52,East,90,0.7,2.5,96,0.01,,,0.32,WUHU216HW,2012-11-20 20:20:00,
2012-11-20 12:25:00,47.7,46.6,29.52,ESE,113,0.0,2.5,96,0.01,,,0.32,WUHU216HW,2012-11-20 20:25:00,
2012-11-20 12:30:00,47.9,46.8,29.52,NE,45,1.6,1.6,96,0.01,,,0.32,WUHU216HW,2012-11-20 20:30:00,
2012-11-20 12:35:00,48.1,47.0,29.52,NE,45,1.3,2.2,96,0.01,,,0.32,WUHU216HW,2012-11-20 20:35:00,
2012-11-20 12:40:00,48.1,47.0,29.52,ENE,68,1.1,2.2,96,0.00,,,0.32,WUHU216HW,2012-11-20 20:40:00,
2012-11-20 12:45:00,48.1,47.0,29.52,NNE,23,0.4,2.0,96,0.00,,,0.32,WUHU216HW,2012-11-20 20:45:00,
2012-11-20 12:50:00,48.1,47.0,29.52,SSW,203,0.9,2.7,96,0.00,,,0.32,WUHU216HW,2012-11-20 20:50:00,
2012-11-20 12:55:00,47.9,46.8,29.52,NE,45,0.4,2.7,96,0.00,,,0.32,WUHU216HW,2012-11-20 20:55:00,
2012-11-20 13:00:00,48.1,47.0,29.52,WSW,248,2.5,5.1,96,0.00,,,0.32,WUHU216HW,2012-11-20 21:00:00,
2012-11-20 13:05:00,48.1,47.0,29.52,ESE,113,3.1,6.3,96,0.00,,,0.32,WUHU216HW,2012-11-20 21:05:00,
2012-11-20 13:10:00,48.1,47.0,29.52,SW,225,5.1,6.3,96,0.00,,,0.32,WUHU216HW,2012-11-20 21:10:00,
2012-11-20 13:15:00,48.4,47.4,29.52,SSW,203,3.8,12.1,96,0.01,,,0.33,WUHU216HW,2012-11-20 21:15:00,
2012-11-20 13:20:00,48.8,47.7,29.53,SW,225,3.4,12.1,96,0.01,,,0.33,WUHU216HW,2012-11-20 21:20:00,
2012-11-20 13:25:00,49.1,48.1,29.53,West,270,4.0,7.8,96,0.01,,,0.33,WUHU216HW,2012-11-20 21:25:00,
2012-11-20 13:30:00,49.1,48.1,29.54,SW,225,3.4,9.8,96,0.02,,,0.34,WUHU216HW,2012-11-20 21:30:00,
2012-11-20 13:35:00,49.0,47.9,29.55,South,180,7.6,10.5,96,0.06,,,0.38,WUHU216HW,2012-11-20 21:35:00,
2012-11-20 13:40:00,48.6,47.5,29.55,WSW,248,7.6,19.2,96,0.07,,,0.39,WUHU216HW,2012-11-20 21:40:00,
2012-11-20 13:45:00,48.2,47.2,29.56,SE,135,4.9,19.2,96,0.07,,,0.39,WUHU216HW,2012-11-20 21:45:00,
2012-11-20 13:50:00,48.1,47.0,29.56,SSW,203,4.7,12.1,96,0.07,,,0.39,WUHU216HW,2012-11-20 21:50:00,
2012-11-20 13:55:00,48.1,47.0,29.56,SW,225,3.4,11.4,96,0.08,,,0.40,WUHU216HW,2012-11-20 21:55:00,
2012-11-20 14:00:00,47.9,46.8,29.56,WSW,248,4.7,5.4,96,0.08,,,0.40,WUHU216HW,2012-11-20 22:00:00,
2012-11-20 14:05:00,47.9,46.8,29.57,SE,135,2.5,8.1,96,0.08,,,0.40,WUHU216HW,2012-11-20 22:05:00,
2012-11-20 14:10:00,47.9,46.8,29.56,SW,225,2.7,10.1,96,0.07,,,0.40,WUHU216HW,2012-11-20 22:10:00,
2012-11-20 14:15:00,48.1,47.0,29.56,WSW,248,8.1,10.1,96,0.07,,,0.40,WUHU216HW,2012-11-20 22:15:00,
2012-11-20 14:20:00,48.1,47.0,29.56,SSW,203,3.6,8.1,96,0.07,,,0.40,WUHU216HW,2012-11-20 22:20:00,
2012-11-20 14:25:00,48.1,47.0,29.57,SW,225,5.4,8.1,96,0.07,,,0.40,WUHU216HW,2012-11-20 22:25:00,
2012-11-20 14:30:00,48.1,47.0,29.57,WSW,248,2.5,7.6,96,0.06,,,0.40,WUHU216HW,2012-11-20 22:30:00,
2012-11-20 14:35:00,47.9,46.8,29.57,West,270,5.1,8.9,96,0.02,,,0.40,WUHU216HW,2012-11-20 22:35:00,
2012-11-20 14:40:00,47.9,46.8,29.58,SW,225,2.7,8.9,96,0.01,,,0.40,WUHU216HW,2012-11-20 22:40:00,
2012-11-20 14:45:00,47.9,46.8,29.58,SW,225,5.4,7.8,96,0.01,,,0.40,WUHU216HW,2012-11-20 22:45:00,
2012-11-20 14:50:00,47.9,46.8,29.58,SSW,203,6.3,7.8,96,0.01,,,0.40,WUHU216HW,2012-11-20 22:50:00,
2012-11-20 14:55:00,47.9,46.8,29.59,WSW,248,5.8,8.3,96,0.00,,,0.40,WUHU216HW,2012-11-20 22:55:00,
2012-11-20 15:00:00,47.9,46.8,29.59,SSW,203,4.3,8.3,96,0.00,,,0.40,WUHU216HW,2012-11-20 23:00:00,
2012-11-20 15:05:00,47.9,46.8,29.60,WSW,248,5.8,6.5,96,0.00,,,0.40,WUHU216HW,2012-11-20 23:05:00,
2012-11-20 15:10:00,47.9,46.8,29.60,SW,225,1.1,6.9,96,0.00,,,0.40,WUHU216HW,2012-11-20 23:10:00,
2012-11-20 15:15:00,47.7,46.6,29.60,WSW,248,2.7,6.9,96,0.00,,,0.40,WUHU216HW,2012-11-20 23:15:00,
2012-11-20 15:20:00,47.7,46.6,29.61,WSW,248,5.6,6.9,96,0.00,,,0.40,WUHU216HW,2012-11-20 23:20:00,
2012-11-20 15:25:00,47.7,46.6,29.61,South,180,3.4,6.9,96,0.00,,,0.40,WUHU216HW,2012-11-20 23:25:00,
2012-11-20 15:30:00,47.5,46.4,29.61,SSW,203,4.7,6.9,96,0.00,,,0.40,WUHU216HW,2012-11-20 23:30:00,
2012-11-20 15:35:00,47.5,46.4,29.62,SW,225,2.7,6.7,96,0.00,,,0.40,WUHU216HW,2012-11-20 23:35:00,
2012-11-20 15:40:00,47.5,46.4,29.62,WSW,248,2.5,6.0,96,0.00,,,0.40,WUHU216HW,2012-11-20 23:40:00,
2012-11-20 15:45:00,47.5,46.4,29.62,West,270,0.7,6.3,96,0.00,,,0.40,WUHU216HW,2012-11-20 23:45:00,
2012-11-20 15:50:00,47.5,46.4,29.63,SSW,203,3.4,6.3,96,0.00,,,0.40,WUHU216HW,2012-11-20 23:50:00,
2012-11-20 15:55:00,47.5,46.4,29.62,WSW,248,0.7,5.4,96,0.00,,,0.40,WUHU216HW,2012-11-20 23:55:00,
2012-11-20 16:00:00,47.5,46.4,29.63,SW,225,4.3,5.1,96,0.00,,,0.40,WUHU216HW,2012-11-21 00:00:00,
2012-11-20 16:05:00,47.5,46.4,29.62,WSW,248,1.1,4.3,96,0.00,,,0.40,WUHU216HW,2012-11-21 00:05:00,
2012-11-20 16:10:00,47.5,46.4,29.63,SW,225,4.7,4.7,96,0.00,,,0.40,WUHU216HW,2012-11-21 00:10:00,
2012-11-20 16:15:00,47.5,46.4,29.63,South,180,3.4,5.4,96,0.00,,,0.40,WUHU216HW,2012-11-21 00:15:00,
2012-11-20 16:20:00,47.5,46.4,29.63,SW,225,2.2,5.4,96,0.00,,,0.40,WUHU216HW,2012-11-21 00:20:00,
2012-11-20 16:25:00,47.5,46.4,29.63,WSW,248,2.2,5.4,96,0.00,,,0.40,WUHU216HW,2012-11-21 00:25:00,
2012-11-20 16:30:00,47.5,46.4,29.62,SW,225,1.8,5.4,96,0.00,,,0.40,WUHU216HW,2012-11-21 00:30:00,
2012-11-20 16:35:00,47.3,46.3,29.63,WSW,248,1.1,2.9,96,0.00,,,0.40,WUHU216HW,2012-11-21 00:35:00,
2012-11-20 16:40:00,47.3,46.3,29.62,SW,225,2.7,3.8,96,0.00,,,0.40,WUHU216HW,2012-11-21 00:40:00,
2012-11-20 16:45:00,47.3,46.3,29.62,SW,225,2.7,6.3,96,0.00,,,0.40,WUHU216HW,2012-11-21 00:45:00,
2012-11-20 16:50:00,47.3,46.3,29.62,WSW,248,0.2,6.3,96,0.00,,,0.40,WUHU216HW,2012-11-21 00:50:00,
2012-11-20 16:55:00,47.2,46.1,29.62,SW,225,4.9,4.9,96,0.00,,,0.40,WUHU216HW,2012-11-21 00:55:00,
2012-11-20 17:00:00,47.2,46.1,29.62,SSW,203,4.7,4.9,96,0.00,,,0.40,WUHU216HW,2012-11-21 01:00:00,
2012-11-20 17:05:00,47.2,45.8,29.62,WSW,248,3.8,4.9,95,0.00,,,0.40,WUHU216HW,2012-11-21 01:05:00,
2012-11-20 17:10:00,47.2,45.8,29.62,West,270,1.8,9.2,95,0.00,,,0.40,WUHU216HW,2012-11-21 01:10:00,
2012-11-20 17:15:00,47.2,45.8,29.62,West,270,2.2,9.2,95,0.00,,,0.40,WUHU216HW,2012-11-21 01:15:00,
2012-11-20 17:20:00,47.2,45.8,29.62,WSW,248,1.1,8.7,95,0.00,,,0.40,WUHU216HW,2012-11-21 01:20:00,
2012-11-20 17:25:00,47.0,45.6,29.62,SE,135,2.5,8.7,95,0.00,,,0.40,WUHU216HW,2012-11-21 01:25:00,
2012-11-20 17:30:00,47.0,45.4,29.62,WSW,248,2.2,6.0,94,0.00,,,0.40,WUHU216HW,2012-11-21 01:30:00,
2012-11-20 17:35:00,47.0,45.4,29.61,ESE,113,1.3,6.0,94,0.00,,,0.40,WUHU216HW,2012-11-21 01:35:00,
2012-11-20 17:40:00,47.0,45.4,29.62,South,180,3.1,4.5,94,0.00,,,0.40,WUHU216HW,2012-11-21 01:40:00,
2012-11-20 17:45:00,47.0,45.4,29.62,WNW,293,4.3,4.5,94,0.00,,,0.40,WUHU216HW,2012-11-21 01:45:00,
2012-11-20 17:50:00,47.0,45.4,29.62,West,270,2.9,9.6,94,0.01,,,0.41,WUHU216HW,2012-11-21 01:50:00,
2012-11-20 17:55:00,47.0,45.4,29.62,SW,225,3.4,9.6,94,0.01,,,0.41,WUHU216HW,2012-11-21 01:55:00,
2012-11-20 18:00:00,47.2,45.8,29.62,SW,225,3.4,7.6,95,0.01,,,0.41,WUHU216HW,2012-11-21 02:00:00,
2012-11-20 18:05:00,47.2,45.8,29.62,SSE,158,0.9,5.6,95,0.01,,,0.41,WUHU216HW,2012-11-21 02:05:00,
2012-11-20 18:10:00,47.0,45.6,29.62,SW,225,4.7,4.7,95,0.01,,,0.41,WUHU216HW,2012-11-21 02:10:00,
2012-11-20 18:15:00,47.0,45.4,29.62,South,180,1.6,5.4,94,0.01,,,0.41,WUHU216HW,2012-11-21 02:15:00,
2012-11-20 18:20:00,47.0,45.4,29.62,SSW,203,0.0,5.4,94,0.01,,,0.41,WUHU216HW,2012-11-21 02:20:00,
2012-11-20 18:25:00,47.0,45.4,29.62,SW,225,3.1,5.4,94,0.01,,,0.41,WUHU216HW,2012-11-21 02:25:00,
2012-11-20 18:30:00,46.8,45.2,29.62,SW,225,6.3,6.3,94,0.01,,,0.41,WUHU216HW,2012-11-21 02:30:00,
2012-11-20 18:35:00,47.0,45.4,29.62,WSW,248,2.0,6.3,94,0.01,,,0.41,WUHU216HW,2012-11-21 02:35:00,
2012-11-20 18:40:00,47.0,45.4,29.62,SW,225,2.9,6.9,94,0.01,,,0.41,WUHU216HW,2012-11-21 02:40:00,
2012-11-20 18:45:00,47.2,45.5,29.63,West,270,5.6,6.9,94,0.01,,,0.41,WUHU216HW,2012-11-21 02:45:00,
2012-11-20 18:50:00,47.0,45.4,29.64,WSW,248,6.3,9.6,94,0.00,,,0.41,WUHU216HW,2012-11-21 02:50:00,
2012-11-20 18:55:00,46.6,44.7,29.64,SW,225,5.8,11.4,93,0.00,,,0.41,WUHU216HW,2012-11-21 02:55:00,
2012-11-20 19:00:00,46.1,44.2,29.64,SE,135,0.9,11.4,93,0.00,,,0.41,WUHU216HW,2012-11-21 03:00:00,
2012-11-20 19:05:00,45.7,43.6,29.63,WSW,248,2.5,8.1,92,0.00,,,0.41,WUHU216HW,2012-11-21 03:05:00,
2012-11-20 19:10:00,45.5,43.7,29.63,West,270,1.8,4.5,93,0.00,,,0.41,WUHU216HW,2012-11-21 03:10:00,
2012-11-20 19:15:00,45.4,43.5,29.63,WSW,248,2.0,4.0,93,0.00,,,0.41,WUHU216HW,2012-11-21 03:15:00,
2012-11-20 19:20:00,45.2,43.3,29.63,SW,225,2.2,4.0,93,0.00,,,0.41,WUHU216HW,2012-11-21 03:20:00,
2012-11-20 19:25:00,45.0,43.1,29.63,WSW,248,3.4,3.4,93,0.00,,,0.41,WUHU216HW,2012-11-21 03:25:00,
2012-11-20 19:30:00,44.8,42.9,29.63,SW,225,1.8,3.4,93,0.00,,,0.41,WUHU216HW,2012-11-21 03:30:00,
2012-11-20 19:35:00,44.6,42.8,29.63,WSW,248,1.8,4.5,93,0.00,,,0.41,WUHU216HW,2012-11-21 03:35:00,
2012-11-20 19:40:00,44.5,42.6,29.63,WSW,248,1.8,4.5,93,0.00,,,0.41,WUHU216HW,2012-11-21 03:40:00,
2012-11-20 19:45:00,44.5,42.6,29.63,WSW,248,2.5,3.8,93,0.00,,,0.41,WUHU216HW,2012-11-21 03:45:00,
2012-11-20 19:50:00,44.5,42.6,29.63,WSW,248,2.2,3.4,93,0.00,,,0.41,WUHU216HW,2012-11-21 03:50:00,
2012-11-20 19:55:00,44.5,42.8,29.63,WSW,248,2.0,2.9,94,0.00,,,0.41,WUHU216HW,2012-11-21 03:55:00,
2012-11-20 20:00:00,44.3,42.7,29.63,WSW,248,2.5,3.1,94,0.00,,,0.41,WUHU216HW,2012-11-21 04:00:00,
2012-11-20 20:05:00,44.3,42.7,29.63,WSW,248,1.1,3.1,94,0.00,,,0.41,WUHU216HW,2012-11-21 04:05:00,
2012-11-20 20:10:00,44.3,42.7,29.63,WSW,248,1.1,2.7,94,0.00,,,0.41,WUHU216HW,2012-11-21 04:10:00,
2012-11-20 20:15:00,44.3,42.7,29.63,West,270,1.6,1.8,94,0.00,,,0.41,WUHU216HW,2012-11-21 04:15:00,
2012-11-20 20:20:00,44.3,42.7,29.63,WSW,248,1.8,1.8,94,0.00,,,0.41,WUHU216HW,2012-11-21 04:20:00,
2012-11-20 20:25:00,44.1,42.5,29.63,WSW,248,0.4,1.8,94,0.00,,,0.41,WUHU216HW,2012-11-21 04:25:00,
2012-11-20 20:30:00,43.9,42.3,29.63,WSW,248,1.1,1.8,94,0.00,,,0.41,WUHU216HW,2012-11-21 04:30:00,
2012-11-20 20:35:00,43.7,42.1,29.63,WSW,248,0.0,1.8,94,0.00,,,0.41,WUHU216HW,2012-11-21 04:35:00,
2012-11-20 20:40:00,43.7,42.1,29.63,West,270,1.3,1.8,94,0.00,,,0.41,WUHU216HW,2012-11-21 04:40:00,
2012-11-20 20:45:00,43.6,41.9,29.62,WSW,248,1.6,1.8,94,0.00,,,0.41,WUHU216HW,2012-11-21 04:45:00,
2012-11-20 20:50:00,43.6,41.9,29.62,WSW,248,1.3,1.8,94,0.00,,,0.41,WUHU216HW,2012-11-21 04:50:00,
2012-11-20 20:55:00,43.6,41.9,29.62,WSW,248,1.1,1.8,94,0.00,,,0.41,WUHU216HW,2012-11-21 04:55:00,
2012-11-20 21:00:00,43.6,41.9,29.62,West,270,1.8,1.8,94,0.00,,,0.41,WUHU216HW,2012-11-21 05:00:00,
2012-11-20 21:05:00,43.4,41.8,29.62,West,270,1.3,1.8,94,0.00,,,0.41,WUHU216HW,2012-11-21 05:05:00,
2012-11-20 21:10:00,43.2,41.6,29.61,SSW,203,2.5,2.5,94,0.00,,,0.41,WUHU216HW,2012-11-21 05:10:00,
2012-11-20 21:15:00,43.2,41.6,29.61,SW,225,1.8,2.5,94,0.00,,,0.41,WUHU216HW,2012-11-21 05:15:00,
2012-11-20 21:21:00,43.2,41.6,29.61,SW,225,0.0,2.5,94,0.00,,,0.41,WUHU216HW,2012-11-21 05:21:00,
2012-11-20 21:26:00,43.2,41.6,29.61,SW,225,0.0,1.8,94,0.00,,,0.41,WUHU216HW,2012-11-21 05:26:00,
2012-11-20 21:31:00,43.0,41.4,29.61,SW,225,1.1,1.6,94,0.00,,,0.41,WUHU216HW,2012-11-21 05:31:00,
2012-11-20 21:36:00,43.0,41.4,29.61,WSW,248,0.0,1.8,94,0.00,,,0.41,WUHU216HW,2012-11-21 05:36:00,
2012-11-20 21:41:00,43.0,41.4,29.61,West,270,0.0,1.8,94,0.00,,,0.41,WUHU216HW,2012-11-21 05:41:00,
2012-11-20 21:46:00,43.0,41.7,29.61,West,270,0.2,0.9,95,0.00,,,0.41,WUHU216HW,2012-11-21 05:46:00,
2012-11-20 21:51:00,43.0,41.7,29.61,South,180,0.0,0.9,95,0.00,,,0.41,WUHU216HW,2012-11-21 05:51:00,
2012-11-20 21:56:00,43.0,41.7,29.61,SW,225,1.8,1.8,95,0.00,,,0.41,WUHU216HW,2012-11-21 05:56:00,
2012-11-20 22:01:00,43.0,41.7,29.61,SW,225,0.7,1.8,95,0.00,,,0.41,WUHU216HW,2012-11-21 06:01:00,
2012-11-20 22:06:00,43.2,41.9,29.60,ENE,68,0.0,1.8,95,0.00,,,0.41,WUHU216HW,2012-11-21 06:06:00,
2012-11-20 22:11:00,43.2,41.9,29.59,ENE,68,0.0,0.9,95,0.00,,,0.41,WUHU216HW,2012-11-21 06:11:00,
2012-11-20 22:16:00,43.2,41.9,29.59,ENE,68,1.1,1.1,95,0.00,,,0.41,WUHU216HW,2012-11-21 06:16:00,
2012-11-20 22:21:00,43.2,41.9,29.59,SW,225,1.3,1.3,95,0.00,,,0.41,WUHU216HW,2012-11-21 06:21:00,
2012-11-20 22:26:00,43.2,41.9,29.59,SW,225,0.4,1.8,95,0.00,,,0.41,WUHU216HW,2012-11-21 06:26:00,
2012-11-20 22:31:00,43.2,41.9,29.58,SW,225,0.9,1.8,95,0.00,,,0.41,WUHU216HW,2012-11-21 06:31:00,
2012-11-20 22:36:00,43.2,41.9,29.58,SW,225,0.7,1.1,95,0.00,,,0.41,WUHU216HW,2012-11-21 06:36:00,
2012-11-20 22:41:00,43.0,41.7,29.58,SW,225,0.0,0.9,95,0.00,,,0.41,WUHU216HW,2012-11-21 06:41:00,
2012-11-20 22:46:00,43.0,41.7,29.58,SW,225,1.1,1.1,95,0.00,,,0.41,WUHU216HW,2012-11-21 06:46:00,
2012-11-20 22:51:00,42.8,41.5,29.58,WSW,248,1.8,1.8,95,0.00,,,0.41,WUHU216HW,2012-11-21 06:51:00,
2012-11-20 22:56:00,42.8,41.5,29.58,West,270,1.8,1.8,95,0.00,,,0.41,WUHU216HW,2012-11-21 06:56:00,
2012-11-20 23:01:00,42.7,41.3,29.57,West,270,0.9,1.8,95,0.00,,,0.41,WUHU216HW,2012-11-21 07:01:00,
2012-11-20 23:06:00,42.7,41.3,29.57,West,270,1.6,1.8,95,0.00,,,0.41,WUHU216HW,2012-11-21 07:06:00,
2012-11-20 23:11:00,42.7,41.3,29.56,West,270,1.6,2.0,95,0.00,,,0.41,WUHU216HW,2012-11-21 07:11:00,
2012-11-20 23:16:00,42.7,41.3,29.57,West,270,0.9,2.9,95,0.00,,,0.41,WUHU216HW,2012-11-21 07:16:00,
2012-11-20 23:21:00,42.5,41.1,29.56,West,270,1.1,2.9,95,0.00,,,0.41,WUHU216HW,2012-11-21 07:21:00,
2012-11-20 23:26:00,42.5,41.1,29.56,West,270,1.1,2.5,95,0.00,,,0.41,WUHU216HW,2012-11-21 07:26:00,
2012-11-20 23:31:00,42.5,41.1,29.55,SW,225,1.3,2.5,95,0.00,,,0.41,WUHU216HW,2012-11-21 07:31:00,
2012-11-20 23:36:00,42.7,41.3,29.54,SSW,203,2.9,2.9,95,0.00,,,0.41,WUHU216HW,2012-11-21 07:36:00,
2012-11-20 23:41:00,42.8,41.5,29.54,SSW,203,0.0,2.9,95,0.00,,,0.41,WUHU216HW,2012-11-21 07:41:00,
2012-11-20 23:46:00,42.8,41.5,29.54,SW,225,1.3,1.6,95,0.00,,,0.41,WUHU216HW,2012-11-21 07:46:00,
2012-11-20 23:51:00,42.8,41.5,29.53,SW,225,1.1,1.8,95,0.00,,,0.41,WUHU216HW,2012-11-21 07:51:00,
2012-11-20 23:56:00,42.8,41.5,29.53,West,270,1.6,2.5,95,0.00,,,0.41,WUHU216HW,2012-11-21 07:56:00,